Powrót do katalogu

STARLINK-4267

AktywnyŁącznośćVLEO
NORAD 52864·PAYLOAD·🇺🇸 United States

Wystrzelony Jun 17, 2022 z Cape Canaveral Space Force Station

Loading…

Następne Przeloty (najbliższe 24 godziny)

TLE

ŚwieżeSource: CelesTrak SupGP

Epoka: Sep 15, 2026, 01:50 UTC

1 52864C 22062AL  26258.07687500 -.00020598  00000+0 -60858-3 0  2586
2 52864  53.1586 242.7191 0001264  89.2391  86.0162 15.34400656    14

Śledź STARLINK-4267 w czasie rzeczywistym z AllMySat

Download on the App Store